LRSB Weather Reports


Display with metric or nautical units.
time (UTC)temp
F
wind
direction
speed
MPH
gust
MPH
rain 1hr
in
rain 24hr
in
rain mn
in
humidity
%
barometer
mb
20260902220311 63 270 10.0 0.0 0.00 0.00 0.00 56 1020.0
20260902214811 63 270 9.0 0.0 0.00 0.00 0.00 56 1020.0
20260902213311 63 270 9.0 0.0 0.00 0.00 0.00 56 1020.0
20260902211811 63 270 5.0 0.0 0.00 0.00 0.00 56 1020.0
20260902210311 63 270 5.0 0.0 0.00 0.00 0.00 56 1020.0
20260902204810 64 290 7.0 0.0 0.00 0.00 0.00 52 1020.0
20260902203311 64 290 7.0 0.0 0.00 0.00 0.00 52 1020.0
20260902201811 64 250 8.0 0.0 0.00 0.00 0.00 49 1020.0
20260902200326 64 250 8.0 0.0 0.00 0.00 0.00 49 1020.0
20260902194811 63 270 7.0 0.0 0.00 0.00 0.00 59 1020.0
20260902193311 63 270 7.0 0.0 0.00 0.00 0.00 59 1020.0
20260902191811 63 270 5.0 0.0 0.00 0.00 0.00 59 1020.0
20260902190311 63 270 5.0 0.0 0.00 0.00 0.00 59 1020.0
20260902184811 66 250 6.0 0.0 0.00 0.00 0.00 49 1020.0
20260902183311 66 250 6.0 0.0 0.00 0.00 0.00 49 1020.0
20260902181811 68 260 2.0 0.0 0.00 0.00 0.00 53 1019.0
20260902180311 68 260 2.0 0.0 0.00 0.00 0.00 53 1019.0
20260902174811 75 360 6.0 0.0 0.00 0.00 0.00 41 1019.0
20260902173311 75 360 6.0 0.0 0.00 0.00 0.00 41 1019.0
20260902171811 77 10 5.0 0.0 0.00 0.00 0.00 36 1019.0
20260902170311 77 10 5.0 0.0 0.00 0.00 0.00 36 1019.0
20260902164925 77 300 8.0 0.0 0.00 0.00 0.00 30 1018.0
20260902163311 77 300 8.0 0.0 0.00 0.00 0.00 30 1018.0
20260902161811 81 320 9.0 0.0 0.00 0.00 0.00 24 1018.0
20260902160322 81 320 9.0 0.0 0.00 0.00 0.00 24 1018.0
20260902154812 82 290 10.0 0.0 0.00 0.00 0.00 23 1019.0
20260902153310 82 290 10.0 0.0 0.00 0.00 0.00 23 1019.0
20260902151811 82 330 10.0 0.0 0.00 0.00 0.00 21 1019.0
20260902150311 82 330 10.0 0.0 0.00 0.00 0.00 21 1019.0
20260902144811 82 320 9.0 0.0 0.00 0.00 0.00 23 1019.0
20260902143311 82 320 9.0 0.0 0.00 0.00 0.00 23 1019.0
20260902140311 84 360 8.0 0.0 0.00 0.00 0.00 23 1019.0
20260902134811 84 310 13.0 0.0 0.00 0.00 0.00 20 1019.0
20260902133310 84 310 13.0 0.0 0.00 0.00 0.00 20 1019.0
20260902131811 82 340 10.0 0.0 0.00 0.00 0.00 23 1019.0
20260902130311 82 340 10.0 0.0 0.00 0.00 0.00 23 1019.0
20260902124813 82 300 7.0 0.0 0.00 0.00 0.00 21 1020.0
20260902123311 82 300 7.0 0.0 0.00 0.00 0.00 21 1020.0
20260902121812 82 340 15.0 0.0 0.00 0.00 0.00 23 1020.0
20260902120311 82 340 15.0 0.0 0.00 0.00 0.00 23 1020.0
20260902114811 81 310 10.0 0.0 0.00 0.00 0.00 26 1020.0
20260902113311 81 310 10.0 0.0 0.00 0.00 0.00 26 1020.0
20260902111811 81 350 13.0 0.0 0.00 0.00 0.00 28 1020.0
20260902110312 81 350 13.0 0.0 0.00 0.00 0.00 28 1020.0
20260902104811 82 350 8.0 0.0 0.00 0.00 0.00 26 1020.0
20260902103310 82 350 8.0 0.0 0.00 0.00 0.00 26 1020.0
20260902101811 81 310 15.0 0.0 0.00 0.00 0.00 28 1021.0
20260902100317 81 310 15.0 0.0 0.00 0.00 0.00 28 1021.0
20260902094811 79 330 10.0 0.0 0.00 0.00 0.00 30 1021.0
20260902093311 79 330 10.0 0.0 0.00 0.00 0.00 30 1021.0
20260902091811 79 300 11.0 0.0 0.00 0.00 0.00 30 1021.0
20260902090411 77 320 11.0 0.0 0.00 0.00 0.00 34 1021.0
20260902084811 77 320 11.0 0.0 0.00 0.00 0.00 34 1021.0
20260902083311 77 320 11.0 0.0 0.00 0.00 0.00 34 1021.0
20260902081811 77 340 13.0 0.0 0.00 0.00 0.00 34 1021.0
20260902080312 77 340 13.0 0.0 0.00 0.00 0.00 34 1021.0
20260902074847 77 330 11.0 0.0 0.00 0.00 0.00 34 1021.0
20260902073311 77 330 11.0 0.0 0.00 0.00 0.00 34 1021.0
20260902070311 75 90 3.0 0.0 0.00 0.00 0.00 50 1021.0
20260902064811 70 90 3.0 0.0 0.00 0.00 0.00 60 1021.0
20260902063312 70 90 3.0 0.0 0.00 0.00 0.00 60 1021.0
20260902061812 68 90 5.0 0.0 0.00 0.00 0.00 69 1021.0
20260902060311 68 90 5.0 0.0 0.00 0.00 0.00 69 1021.0
20260902054810 66 1.0 0.0 0.00 0.00 0.00 73 1021.0
20260902053311 66 1.0 0.0 0.00 0.00 0.00 73 1021.0
20260902051811 61 1.0 0.0 0.00 0.00 0.00 83 1021.0
20260902050312 61 1.0 0.0 0.00 0.00 0.00 83 1021.0
20260902044811 57 2.0 0.0 0.00 0.00 0.00 94 1021.0
20260902043311 57 2.0 0.0 0.00 0.00 0.00 94 1021.0
20260902041811 55 1.0 0.0 0.00 0.00 0.00 100 1021.0
20260902040315 55 1.0 0.0 0.00 0.00 0.00 100 1021.0
20260902034811 57 1.0 0.0 0.00 0.00 0.00 94 1021.0
20260902033312 57 1.0 0.0 0.00 0.00 0.00 94 1021.0
20260902031811 57 2.0 0.0 0.00 0.00 0.00 94 1020.0
20260902030311 57 2.0 0.0 0.00 0.00 0.00 94 1020.0
20260902024811 59 1.0 0.0 0.00 0.00 0.00 88 1020.0
20260902023311 59 1.0 0.0 0.00 0.00 0.00 88 1020.0
20260902021813 57 230 3.0 0.0 0.00 0.00 0.00 94 1020.0
20260902020311 57 230 3.0 0.0 0.00 0.00 0.00 94 1020.0
20260902014810 61 220 1.0 0.0 0.00 0.00 0.00 88 1021.0
20260902013311 61 220 1.0 0.0 0.00 0.00 0.00 88 1021.0
20260902011810 61 1.0 0.0 0.00 0.00 0.00 88 1021.0
20260902010311 61 1.0 0.0 0.00 0.00 0.00 88 1021.0
20260902004811 61 90 3.0 0.0 0.00 0.00 0.00 88 1020.0
20260902003310 61 90 3.0 0.0 0.00 0.00 0.00 88 1020.0
20260902001812 63 2.0 0.0 0.00 0.00 0.00 83 1020.0
20260902000322 63 2.0 0.0 0.00 0.00 0.00 83 1020.0
20260901234813 61 240 3.0 0.0 0.00 0.00 0.00 88 1020.0
20260901233311 61 240 3.0 0.0 0.00 0.00 0.00 88 1020.0
20260901231811 61 260 6.0 0.0 0.00 0.00 0.00 88 1020.0
20260901230327 61 260 6.0 0.0 0.00 0.00 0.00 88 1020.0
20260901224811 63 2.0 0.0 0.00 0.00 0.00 83 1020.0
20260901223311 63 2.0 0.0 0.00 0.00 0.00 83 1020.0
20260901221810 68 340 3.0 0.0 0.00 0.00 0.00 73 1020.0